STARLINK-34336, 64462

Orbit data source: Space-Track

STARLINK-34336, 64462 is a payload satellite owned by SpaceX/Seattle (US) in LEO that was launched on Wed, 18 Jun 2025 UTC via an FALCON 9 launch vehicle from the Air Force Eastern Test Range (AFETR). Payload-class satellites include a variety of spacecraft equipped with specific instruments for various scientific and technological missions. These include communications satellites like Starlink; space stations such as the ISS; scientific satellites like the Hubble; Earth observation satellites from companies like Planet Labs, Umbra, and HawkEye 360; GPS; miniature CubeSats for education and research; and military/defense satellites.

Loading next visibility...
Identifier
64462, 2025-130AA
Orbit
LEO
Country
Flag of USUS
Related business
Manufacturer
SpaceX/Seattle
Mission
Operational Commercial Communications
Bus & Motor
STARLINK V2MO, Unknown motor
Mass
575 kg wet, ~530 kg dry
Launch date (UTC)
2025-06-18 (1 year ago)
Launch vehicle
FALCON 9
Launch site
Air Force Eastern Test Range (AFETR)
Object type
Payload
Rocket body
Debris
Shape & HBR
Box + 2 Pan, 17.7 m
Radar Cross Section
36.964 m², Large (>1 m²)

Expand to show TLE details & history
Last TLE update: 10 hours ago

TLE from 10 hours ago
0 STARLINK-34336
1 64462U 25130AA  26171.42945728  .00022056  00000-0  71953-3 0  9994
2 64462  53.1606 333.3390 0001292  69.0757 291.0383 15.31739703 56407
Epoch: 2026-06-20T10:18Z
TLE epoch observation values (Epoch: 2026-06-20T10:18:25.108Z)
Latitude
-0.00002°
Longitude
-89.90984°
Altitude
471.204 km
Speed
7.632 km/s
True Right ascension
22h 13m 21s
True Declination
0° 00' 00"
Sunlit
Object was in full shadow at epoch
Visualization orbit readout
Latitude
Unknown
Longitude
Unknown
Altitude
Unknown
Speed
Unknown
Apparent Right ascension
Unknown
Apparent Declination
Unknown
Sunlit
N/A
Visualization observer readout
Local Sidereal Time
07:13:45
Azimuth
Unknown
Elevation
Unknown
Doppler factor
Unknown
Orbital elements
Apogee altitude
471.763 km
Perigee altitude
469.993 km
Semi-major axis
6,849.015 km
Eccentricity
0.00013
Inclination
53.1606°
RAAN
333.339°
Arg. of periapsis
69.0757°
True anomaly
291.02448°
Mean anomaly
291.0383°
Eccentric anomaly
291.03139°
Mean motion
3.82914 °/min
Orbital period
94.02 mins
BSTAR
0.00071953
Loading maneuver chart data...
Computing Atmospheric mass density...
Loading historical data...
Loading historical data...
Loading historical data...
Loading historical data...
Loading historical data...
Loading historical data...
Loading historical data...

Documentation

Showing up to 5 results
|